Race Results for
Utah State Time Trial Championships
Salt Lake City, UT
(Event Information)
View By:
Time Trial on 05/28/2012

Note: Ranking points are NOT upgrade points. An explanation of ranking points can be found here.


Men - Cat 1/2/3/4/5 - Junior - 10-14

 Place Points NameCity, StateTime USAC #BibTeam
1540.00Evan Clouse   Park City, UT16:56.31 323978  647 Cole Sport
2565.00Charles Macfarlane   Salt Lake City, UT18:29.23 301111  648 
3590.00Ian Catmull   South Jordan, UT0:28:45.82 366744  646 Revolution Cafe Rio

Men - Cat 1/2/3/4/5 - Masters - 40-49

 Place Points NameCity, StateTime USAC #BibTeam
1Eric Martin   St. George, UT0:41:17.84 266132  496 Canyon Bicycles Race Team
2Mark Miller   Draper, UT0:43:00.25 24435  497 Canyon Bicycles

Men - Cat 1/2/3/4/5 - Masters - 50-59

 Place Points NameCity, StateTime USAC #BibTeam
1Steven White   0:54:01.34  447 

Men - Cat 1/2/3/4/5 - Masters - 55-99

 Place Points NameCity, StateTime USAC #BibTeam
1461.64Charles Palmer   Herriman, UT0:58:38.58 156926  268 FFKR Racing Team
2473.31Gary Porter   Roy, UT1:00:09.81 60559  269 Ogden One
3484.98Norman Frye   Salt Lake City, UT1:00:17.90 260377  261 Ski Utah
4496.65Lorin Ronnow   Salt Lake City, UT1:00:26.53 264904  271 FFKR Architects Racing
5508.32Joe Brubaker   Saltlakecity, UT1:00:27.25 303618  260 Ski Utah
6519.99Dennis Kawamura   Blackfootkfoot, ID1:00:42.31 347230  264 ICE
7531.66Elton Reid   Park City, UT1:01:20.55 192940  270 FFKR
8543.33Shannon Storrud   Park City, UT1:01:51.54 242162  272 Porcupine Cycling
9555.00John Lauck   Bountiful, UT1:01:52.20 228846  265 Bountiful Mazda Cycling Team
10566.67Scott Horn   Teton Village, WY1:06:53.15 192878  262 team jackson hole
11Howard Metz   1:06:59.98  267 Porcupine Racing
12590.01Mitch White   Pocatello, ID 156373  273 ICE/Idaho Kidney Institute
DNFJerald Hunsaker   Midvale, UT 142960  263 Bountiful Mazda Cycling Team

Men - Cat 1/2/3/4/5 - Masters - 60-69

 Place Points NameCity, StateTime USAC #BibTeam
1476.96Ken Louder   Salt Lake City, UT0:42:05.22 179491  366 FFKR
2514.64Gary Simmons   Layton, UT0:44:57.36 199407  367 Bountiful Mazda Cycling Team
3552.32Lee Bourne   Salt Lake City, UT0:49:27.10 149617  364 Contender
4590.00Henry Ebell   Fairview, UT0:52:32.18 47978  365 PORCUPINE RACING

Men - Cat 1/2/3/4/5 - Masters - 70-99

 Place Points NameCity, StateTime USAC #BibTeam
1Frans Berghoff   Orem, UT0:49:11.73 223251  1000 

Men - Cat 1/2 - open

 Place Points NameCity, StateTime USAC #BibTeam
1343.66Tim Mulvihill (1 - Cat2)   Park City, UT1:03:49.01 310119  133 Contender
2363.75Cody Haroldsen (1 - Cat1)   Salt Lake City, UT1:05:20.45 230640  131 Ski Utah/ Marketstar
3383.84Sam Krieg (2 - Cat1)   Pocatello, ID1:05:20.61 201431  132 Idaho Kidney/ICE
4403.93David Brockbank (3 - Cat1)   Salt Lake City, UT1:05:47.55 277908  126 Canyon Bicycles
5424.02Tyler Riedesel (4 - Cat1)   Salt Lake City, UT1:07:03.44 264518  135 Canyon Bicycles
6444.11Mark Flis (2 - Cat2)   Salt Lake City, UT1:09:08.07 282287  129 Revolution Cafe Rio
7464.20Eric Pardyjak (5 - Cat1)   Salt Lake City, UT1:09:39.75 148432  134 Canyon Bicycles
8484.29Kevin Van Loon (3 - Cat2)   North Salt Lake , UT1:11:50.92 184083  136 Bicycle Center
9504.38Will Hanson (4 - Cat2)   Draper, UT1:12:17.01 276490  130 Revolution Cafe Rio
10524.47Manny Cypers (5 - Cat2)   S. Ogden, UT1:14:02.39 248993  128 The Bike Shoppe/Chick Fil A
11544.56Norman Bryner (6 - Cat1)   Salt Lake City, UT1:15:52.31 201017  127 Millcreek Bicycles

Men - Cat 1/2/3 - Masters - 40-99

 Place Points NameCity, StateTime USAC #BibTeam
1400.78Mark Schaefer (1 - Cat2)   Ogden, UT0:56:18.44 66592  688 HarmonyHomes.com
2415.34LOUIS RIEL (1 - Cat3)   Salt Lake City, UT0:56:23.43 157566  687 CANYON BICYCLES
3429.90Scott Kiser (2 - Cat2)   Cottonwoodheights, UT0:56:58.61 281191  684 Bountiful Mazda
4444.46Mark Zimbelman (3 - Cat2)   Provo, UT0:58:16.49 91557  691 Giant Cycling World p/b Jumex and Skullcandy
5459.02Jeff Clawson (4 - Cat2)   Sandy, UT0:58:20.10 103430  679 Canyon Bicycles
6473.58Todd Taft (2 - Cat3)   Salt Lake City, UT0:58:36.35 207596  689 Ski Utah - Marketstar Cycling Team
7488.14Bruce Bilodeau (5 - Cat2)   Sandy, UT0:58:51.40 215197  677 Canyon Bicycles
8502.70Michael Kracht (3 - Cat3)   Park City, UT0:58:53.11 271396  685 Team Big Ring-Realcyclist.com
9517.26Scott Mathewson (4 - Cat3)   South Jordan, UT0:59:59.46 240704  686 Contender Bicycles
10531.82rick black (5 - Cat3)   Alpine, UT1:00:27.54 210661  678 Team plan 7
11546.38Shane DUNLEAVY (6 - Cat3)   Park City, UT1:01:13.43 253994  681 Ski Utah - Marketstar Cycling Team
12560.94Curt Doman (6 - Cat2)   Draper, UT1:02:32.59 73704  680 Revolution Cafe Rio
13575.50Jeffrey Ure (7 - Cat2)   Park City, UT1:02:47.37 36248  690 
14590.06Chris Harder   Jackson, WY1:04:01.70 280609  682 Fitzgeralds Bikes

Men - Cat 3 - open

 Place Points NameCity, StateTime USAC #BibTeam
1519.98Weston Woodward   Ogden0:55:52.96 199584  748 Roosters/Biker's Edge
2526.98jared prince   Kaysville, UT0:56:21.05 290116  746 bobs bicycles
3533.98Adam Catmull   South Jordan, UT0:56:21.37 220468  740 Revolution Cafe Rio
4540.98Simon Parsons   Sandy, UT0:57:21.05 342340  744 Revolution Cafe Rio
5547.98Nic Sells   Clearfield, UT0:59:46.22 295868  747 COTBR
6554.98cristiano pereira   West Valley City, UT0:59:50.61 114691  745 Animal Liberation Racing
7561.98Nolan Finlayson   Riverton, UT0:59:52.82 291403  742 Team dialogue
8568.98Jeremy Collins   Farmington, UT1:01:31.22 131631  741 JTR Cyling
9575.98Al Michini   Salt Lake City, UT1:01:39.20 589  743 Ski Utah Cycling Team
10582.98Dantley Young   Riverton, UT1:02:44.60 223139  749 biggears34@hotmail.com
11589.98Nathan Baldwin   Pleasant View, UT1:03:17.84 274130  739 The Bike Shoppe

Men - Cat 4 - open

 Place Points NameCity, StateTime USAC #BibTeam
1537.82Brian Cadman   Park City, UT0:57:41.23 296523  250 The Church of the Big Ring
2542.56Mike Oblad   Taylorsville, UT0:58:34.69 26520  255 Dialog Racing
3547.30Eric Thompson   Midvale, UT0:59:03.39 322070  258 FFKR Architects Racing Team/Velosport Racing
4552.04Tanner Robison   Logan, UT0:59:14.48 294567  257 SidLee Racing
5556.78Eric Balog   Wilson, WY1:00:04.88 332838  249 Hoback Sports/JHAF
6561.52Greg Deyle   Salt Lake City, UT1:00:31.17 258282  252 Canyon Bicycles
7566.26Gavin Fitzsimmons   Sandy, UT1:00:37.93 312208  253 Infinite Cycles Racing
8571.00Ronald Peterson   Salt Lake City, UT1:01:05.42 295947  256 Mi Duole / Barbacoa
9575.74Sam Trop   Draper, UT1:01:35.48 263601  259 Revolution Cafe Rio
10580.48Ben Cook   Sandy, UT1:01:46.79 303536  251 
11585.22Justin Allen   Murray, UT1:02:11.10 305562  248 Revolution Cafe Rio
12589.96James Ji   Bountiful, UT1:02:50.04 357658  254 Bountiful Bicycle Racing

Men - Cat 4/5 - Masters - 35-99

 Place Points NameCity, StateTime USAC #BibTeam
1540.00James Adinaro (1 - Cat4)   Salt Lake City, UT0:58:27.97 295234  827 Porcupine
2544.55Randall Steinfeldt (1 - Cat5)   West Jordan0:59:31.57 377817  837 Simply Mac Racing Bountiful Bicycle
3549.10Steve Schoonover (2 - Cat4)   Draper, UT0:59:53.12 254266  836 Revolution Cafe Rio
4553.65Drew Purdy (3 - Cat4)   West Valley, UT1:01:27.32 222648  833 VeloCity Cyclists/Canyon Bicycles
5558.20Lance Anderson (4 - Cat4)   Draper, UT1:02:23.09 245283  828 Revolution/Cafe Rio
6562.75Steve Kelly (5 - Cat4)   Draper, UT1:02:33.58 374782  831 BMBBC/DNA
7567.30Bryan Gee (2 - Cat5)   Pocatello, ID1:04:16.94 289796  830 Idaho Cycling Enthusiasts
8571.85Patrick Morton (6 - Cat4)   Park City, UT1:04:47.45 224051  832 Revloution Cafe Rio
9576.40Jeff Stenquist (7 - Cat4)   Draper, UT1:05:29.86 34008  838 Canyon Bicycles Draper
10580.95Ronnie Boutte (8 - Cat4)   Layton, UT1:07:41.00 308066  829 COTBR
11585.50Guy Roundy   West Jordan, UT1:07:46.75 51897  835 CA Pools /CFS Mortgage
12590.05Mark Tuttle (9 - Cat4)   Salt Lake City, UT1:12:47.96 259082  839 Porcupine Racing

Men - Cat 5 - Open

 Place Points NameCity, StateTime USAC #BibTeam
1540.00Andy Iorg   South Jordan, UT0:41:40.45 379865  952 
2550.00Rory Duckworth   Draper, UT0:41:44.94 321092  950 BikeFix
3560.00Trevor Harris   Salt Lake City, UT0:43:15.50 378307  951 Simply Mac Racing
4570.00Michael Conti   Park City, UT0:46:07.86 266003  949 
5580.00peter krebs   Belgrade, MT0:48:15.70 312880  953 rockford/cliff
6590.00Jeff Maier   Evergreen, CO0:50:48.91 80468  954 

Women - Cat 1/2/3/4/5 - Junior - 10-14

 Place Points NameCity, StateTime USAC #BibTeam
1Katie Clouse   Park City, UT0:19:42.27 332072  649 Cole Sport

Women - Cat 1/2/3/4/5 - Masters - 35-99

 Place Points NameCity, StateTime USAC #BibTeam
1540.00Bev Ronnow   Salt Lakecity, UT0:46:10.02 280271  149 FFKR/Velosport Racing
2556.67Kelly Dailey   Ogden, UT0:47:42.83 207981  146 Bountiful Mazda Cycling Team
3573.34Roberta Powers   Draper, UT0:47:43.04 264964  148 Revolution Cafe Rio
4590.01Cris Kiser   Cottonwood, UT0:49:02.33 287258  147 Bountiful Mazda Cycling Team

Women - Cat 1/2/3 - Open

 Place Points NameCity, StateTime USAC #BibTeam
1416.30Megan Hill (1 - Cat2)   Saratoga Springs, UT1:02:16.35 311104  356 Revolution Cafe Rio
2433.40Karen Appleby-Krieg (1 - Cat3)   Pocatello, ID1:02:50.04 207487  353 ICE/Idaho Kidney
3450.50Kristina Maier (2 - Cat2)   Evergreen, CO1:04:05.23 152326  358 
4467.60Breanne Nalder (3 - Cat2)   Murray, UT1:04:12.53 263791  360 Ski Utah Cycling
5484.70Kemille Garvin (4 - Cat2)   Salt Lake City, UT1:04:40.54 326298  355 Bountiful Mazda Cycling Team
6501.80Anne Perry (1 - Cat1)   Draper, UT1:04:47.62 339882  361 Revolution Cafe Rio
7518.90Laura Howat (2 - Cat1)   Salt Lake City, UT1:06:14.46 147582  357 Ski Utah Marketstar
8536.00Robynn Masters (2 - Cat3)   Salt Lake Cty, UT1:06:54.50 22860  359 Ski Utah
9553.10Kaytie Scott (5 - Cat2)   Ogden, UT1:07:03.20 311329  362 Simplymac Racing p/b Bountiful Bicycles
10570.20Ruth Shapiro (3 - Cat3)   Salt Lake City, UT1:08:35.86 179236  363 Ski Utah/Marketstar
11587.30Jamie Bangerter (4 - Cat3)   Draper, UT1:10:26.37 273651  354 Ski Utah Cycling Team

Women - Cat 4 - Open

 Place Points NameCity, StateTime USAC #BibTeam
1540.00Rosanna Sellers   North Salt Lake, UT0:48:44.57 375209  572 JTRCycling
2548.33Alicia Finlayson   Highland, UT0:48:52.55 291405  566 Dialogue Racing
3556.66Heidi Roundy   West Jordan, UT0:50:45.16 371634  571 CA Pools /CFS Mortgage
4564.99Debora Adam   Perry, UT0:51:02.14 377509  565 
5573.32Katherine Ragle   Salt Lake City, UT0:51:02.87 297851  570 Salt Lake City Bicycle Company
6581.65Erin Kawamura   Blackfoot, ID0:51:07.60 369654  567 ISU
7589.98Patty Puz   Sun Valley, ID0:54:43.41 167416  569 Durance
DNSJannalyn Luttrell   Sandy, UT 347534  568 Team Primal Utah Racing

Report missing or incorrect license numbers

Volkswagen
SpySierra NevadaUSACDFBonk BreakerShimano
UCI USA Cycling is the official governing body for all disciplines of competitive cycling in the United States. The 501c3, membership-based organization aims both to achieve sustained success in international cycling competition and to grow competitive cycling in America while delivering an exceptional customer experience.
View Children's Online Privacy Protection Policy
US Olympic Committee